Regional Weather Roundup
Issued by NWS

Home | Current Version | Previous Version | Graphics & Text | Print | Product List | Glossary On
Versions: 1 2 3 4 5 6 7 8 9 10 11 12 13 14 15 16 17 18 19 20 21 22 23 24 25 26 27 28 29 30 31 32 33 34 35 36 37 38 39 40 41 42 43 44 45 46 47 48 49 50
000
ASUS43 KMPX 011910
RWRMN
WEATHER ROUNDUP FOR MINNESOTA
NATIONAL WEATHER SERVICE TWIN CITIES/CHANHASSEN MN
200 PM CDT TUE SEP 01 2015


NOTE: "FAIR" INDICATES FEW OR NO CLOUDS BELOW 12,000 FEET WITH NO
SIGNIFICANT WEATHER AND/OR OBSTRUCTIONS TO VISIBILITY. N/A MEANS
CURRENT SKY AND/OR WEATHER CONDITIONS ARE NOT AVAILABLE.

MNZ060>063-068>070-012000-
   Twin Cities Metro

CITY           SKY/WX    TMP DP  RH WIND       PRES   REMARKS
TWIN CITIES    CLOUDY    83  70  64 SE8       29.89F
ST PAUL        CLOUDY    82  72  71 SE7       29.89F
CRYSTAL        CLOUDY    87  70  56 S7        29.88S HX  92
BLAINE         PTSUNNY   86  70  58 S7        29.89F HX  90
LAKEVILLE      CLOUDY    82  73  74 SE3       29.90S
EDEN PRAIRIE   CLOUDY    84  71  65 S6        29.89R
SOUTH ST PAUL  CLOUDY    83  70  64 SE5       29.89F
LAKE ELMO      FAIR      82  72  69 S6        29.91F
$$
MNZ001>005-007-008-013>017-022>024-027-028-012000-
   Northwest Minnesota

CITY           SKY/WX    TMP DP  RH WIND       PRES   REMARKS
BEMIDJI        SUNNY     81  53  37 S3        29.90F
HALLOCK        SUNNY     84  55  37 S13       29.82F
ROSEAU         SUNNY     82  54  36 SW9       29.86S
WARROAD        SUNNY     81  55  41 SW7       29.87S
THIEF RVR FALL SUNNY     82  52  34 S8        29.87S
CROOKSTON      SUNNY     84  52  32 SW12      29.86S
FOSSTON        SUNNY     84  48  28 S8        29.90S
DETROIT LAKES  SUNNY     82  50  32 SE7       29.91S
MOORHEAD       SUNNY     86  48  26 SE8       29.87S
PARK RAPIDS    SUNNY     84  50  30 S6        29.90F
MAHNOMEN       FAIR      82  53  35 SE7       29.89S
$$
MNZ006-009>011-018-025>026-012000-
   North Central Minnesota

CITY           SKY/WX    TMP DP  RH WIND       PRES   REMARKS
BAUDETTE       SUNNY     81  49  32 VRB3      29.88S
FLAG ISLAND    SUNNY     73  61  64 S9        29.85S
INTL FALLS     SUNNY     79  51  37 W6        29.90S
WASKISH        SUNNY     79  61  53 W3        29.90S
BIG FORK       SUNNY     82  52  34 SW3       29.91S
LONGVILLE      SUNNY     82  52  34 CALM      29.91S
GRAND RAPIDS     N/A     81  50  34 NW5       29.92S
CRANE LAKE     PTSUNNY   75  46  35 W5        29.92F
COOK           SUNNY     79  50  36 W5        29.92S
WALKER         FAIR      80  55  42 E3        29.91S
$$
MNZ012-019>021-037-012000-
   Northeast Minnesota

CITY           SKY/WX    TMP DP  RH WIND       PRES   REMARKS
DULUTH         MOSUNNY   82  65  56 CALM      29.91S
ELY            PTSUNNY   77  48  36 NW7       29.92S
HIBBING        SUNNY     82  53  36 VRB5      29.91F
EVELETH        MOSUNNY   79  50  36 CALM      29.93S
DULUTH HARBOR  MOSUNNY   79  72  78 SE5       29.88S
TWO HARBORS    PTSUNNY   82  73  74 SE6       29.88S
SILVER BAY     PTSUNNY   84  63  48 SW5       29.87F
GRAND MARAIS     N/A     59  55  87 W5        29.87S
G MARAIS ARPRT CLOUDY    77  59  53 W2        29.93F
$$
MNZ029>031-032-039>041-046>048-054>057-064-012000-
   West Central Minnesota

CITY           SKY/WX    TMP DP  RH WIND       PRES   REMARKS
FERGUS FALLS   MOSUNNY   84  59  42 SE8       29.87S
WHEATON        PTSUNNY   79  68  69 S10       29.89S
MORRIS         PTSUNNY   82  72  69 S14       29.89R
ALEXANDRIA     PTSUNNY   83  66  56 E8        29.91F
ELBOW LAKE     FAIR      81  62  52 SE8       29.88S
WADENA         MOSUNNY   82  55  39 SE7       29.90S
GLENWOOD       PTSUNNY   82  70  65 SE8       29.91S
APPLETON       CLOUDY    81  70  69 S7        29.88F
BENSON         PTSUNNY   81  70  69 SW7       29.89S
ORTONVILLE     CLOUDY    79  70  73 S8        29.88F
MADISON        CLOUDY    77  72  83 SE3       29.88F
WILLMAR        FAIR      81  73  78 CALM      29.91R
$$
MNZ033>034-036-042>043-049>051-058-059-012000-
   Central Minnesota

CITY           SKY/WX    TMP DP  RH WIND       PRES   REMARKS
ST CLOUD       PTSUNNY   84  72  67 S8        29.89F
SAUK CENTRE    FAIR      81  69  68 E5        29.90F
PAYNESVILLE    PTSUNNY   81  70  68 E7        29.91R
AITKIN         SUNNY     82  63  51 E3        29.89F
PINE RIVER     SUNNY     82  55  39 E5        29.94S
BRAINERD       SUNNY     82  62  50 E5        29.90F
STAPLES        MOSUNNY   82  50  32 NE5       29.90S
LONG PRAIRIE   FAIR      81  63  54 E5        29.91F
LITTLE FALLS   MOSUNNY   82  63  51 CALM      29.90S
LITCHFIELD     PTSUNNY   82  75  78 SE5       29.90S
BUFFALO        PTSUNNY   82  70  66 SE6       29.90S
MAPLE LAKE     PTSUNNY   82  74  77 SE6       29.90F
$$
MNZ037-044-045-052-053-012000-
   East Central Minnesota

CITY           SKY/WX    TMP DP  RH WIND       PRES   REMARKS
PRINCETON      PTSUNNY   84  72  65 CALM      29.89F
MORA           MOSUNNY   79  70  73 SE6       29.92S
CAMBRIDGE      PTSUNNY   84  70  61 S8        29.88S
RUSH CITY      PTSUNNY   83  72  69 S7        29.90S
MOOSE LAKE     MOSUNNY   81  68  65 CALM      29.89S
HINCKLEY       FAIR      81  73  78 S6        29.91S
CLOQUET        SUNNY     81  63  54 S3        29.91S
MCGREGOR       MOSUNNY   82  63  51 CALM      29.91S
$$
MNZ071>073-080-081-089-090-097-098-012000-
   Southwest Minnesota

CITY           SKY/WX    TMP DP  RH WIND       PRES   REMARKS
MONTEVIDEO     CLOUDY    79  70  73 SW8       29.91S
GRANITE FALLS  CLOUDY    77  71  83 SW3       29.91F
CANBY          LGT RAIN  75  68  78 N5        29.87F
MARSHALL       CLOUDY    77  66  69 N3        29.91F
REDWOOD FALLS  CLOUDY    81  71  71 S7        29.89R
OLIVIA         PTSUNNY   77  70  78 SW5       29.90R
PIPESTONE      CLOUDY    82  70  65 E5        29.90F
WINDOM         PTSUNNY   84  66  54 S9G16     29.91R
WORTHINGTON    PTSUNNY   81  70  69 SW6       29.92S
JACKSON        PTSUNNY   81  72  74 SW6       29.93R
TRACY          CLOUDY    82  72  71 CALM      29.92F
SLAYTON        CLOUDY    80  72  75 CALM      29.92F
$$
MNZ065>067-074>077-082>085-091>093-012000-
   South Central Minnesota

CITY           SKY/WX    TMP DP  RH WIND       PRES   REMARKS
MANKATO        CLOUDY    84  73  70 S9        29.90S HX  91
NEW ULM        CLOUDY    82  73  74 SE7       29.89F
ST JAMES       PTSUNNY   84  73  70 SE8       29.91R HX  91
FAIRMONT       MOSUNNY   82  68  61 S13       29.91S
GLENCOE        CLOUDY    83  74  75 SE9       29.88F
FARIBAULT      PTSUNNY   86  73  66 SE6       29.91S HX  93
OWATONNA       PTSUNNY   84  72  65 S7        29.91S
WASECA         PTSUNNY   82  72  69 S7        29.93R
ALBERT LEA     PTSUNNY   82  73  74 S8        29.92S
$$
MNZ078>079-086>088-094>096-012000-
   Southeast Minnesota

CITY           SKY/WX    TMP DP  RH WIND       PRES   REMARKS
ROCHESTER      MOSUNNY   85  73  67 S10       29.94S HX  91
RED WING       MOSUNNY   88  72  58 SE7       29.88F HX  94
STANTON        PTSUNNY   86  71  61 S5        29.89S HX  91
DODGE CENTER   MOSUNNY   82  73  74 S8        29.93S
WINONA         SUNNY     90  73  58 S6        29.91F HX  98
AUSTIN         MOSUNNY   84  73  70 S7        29.93S HX  91
PRESTON        SUNNY     84  72  67 S10       29.95S
$$
ABBREVIATIONS USED IN REMARKS
   TC - TEMPERATURES IN CELSIUS
  WCI - WIND CHILL INDEX
   HX - HEAT INDEX
  VSB - VISIBILITY
$$


USA.gov is the U.S. government's official web portal to all federal, state and local government web resources and services.